Location: Lower Kingswood
(51.2667°N, 0.2167°W)
Time: 03:21:57
(UTC+00:00)

ADEOS II - Pass Details

Date: 26 September 2023
Orbit: 798 x 798 km, 98.7° (Epoch: 29 November)

Event Time Altitude Azimuth Distance (km) Brightness Sun altitude
Rises 02:17:51 0° 16° (NNE) 3,320 6.2 -31.3°
Reaches altitude 10° 02:20:12 10° 18° (NNE) 2,386 5.3 -31.0°
Enters shadow 02:24:38 62° 41° (NE) 903 2.5 -30.5°
